Wetbulb
67.23 61.74 61.66 60.35 55.46 57.53 55.00 56.08 59.14 57.93 57.74 60.96 60.82 65.08 64.98 66.55 65.36 63.49 76.14 75.35 75.40 76.95 78.49 77.21 77.55 77.58 77.35 77.72 77.87 77.42 77.17 76.89 76.82 76.82 76.62 76.82 76.82 76.89 76.99 76.99 76.85 76.28 74.99 74.44 74.60 74.18 74.63 74.69 74.28
61.65 59.27 60.11 58.50 53.94 53.06 54.29 58.42 57.15 58.74 58.69 58.85 63.93 67.49 66.57 66.44 71.36 72.62 73.86 75.92 76.49 77.65 78.21 76.88 77.19 77.27 77.20 77.14 77.31 77.26 77.19 77.22 77.07 76.79 76.89 76.87 76.94 76.79 76.52 76.44 76.09 75.48 74.38 73.85 74.19 74.34 74.30 74.18 74.42
59.37 58.72 56.37 55.81 55.08 53.74 54.24 58.63 58.87 59.62 58.47 59.22 62.13 68.68 68.05 67.52 71.82 72.15 75.16 76.27 76.58 77.51 77.52 77.20 77.12 77.12 76.99 76.86 76.93 76.98 76.98 76.88 76.96 76.89 76.79 76.94 76.84 76.66 76.51 76.27 75.56 75.12 73.94 73.94 74.11 74.60 74.44 74.09 74.34
57.58 57.63 57.01 52.31 53.82 57.32 58.41 59.72 59.46 59.18 57.91 59.42 61.60 65.40 70.28 72.77 71.85 73.87 75.79 75.87 76.11 76.62 77.32 76.56 76.91 76.81 76.82 76.54 76.58 76.63 76.65 76.71 76.84 76.79 76.69 76.71 76.54 76.46 76.16 76.14 75.56 74.87 73.68 73.90 74.44 74.66 74.19 73.78 73.58
57.01 57.04 52.86 52.57 54.40 58.20 59.55 60.54 59.40 58.79 57.30 58.07 64.20 64.50 68.05 73.32 75.70 75.45 75.42 75.20 75.14 76.02 77.27 77.02 76.73 76.76 76.64 76.39 76.34 76.34 76.36 76.41 76.59 76.66 76.64 76.46 76.28 76.03 76.06 75.69 75.34 74.42 73.53 73.75 74.17 74.39 74.19 73.94 73.54
52.27 53.99 51.44 51.22 54.46 57.32 58.85 60.26 59.57 58.92 57.92 57.27 63.87 65.15 69.08 75.42 75.87 75.23 75.67 75.10 75.25 76.10 77.16 76.68 76.62 76.48 76.31 76.44 76.14 75.88 75.75 76.00 76.11 76.31 76.31 76.16 76.00 75.73 75.54 75.09 74.61 73.95 73.45 73.48 73.80 74.15 73.91 73.86 73.54
51.94 49.73 50.93 53.94 54.98 55.15 57.50 59.85 58.06 58.67 58.01 57.55 66.65 63.80 69.98 73.57 76.53 76.30 76.21 75.69 75.71 76.83 76.78 76.36 75.87 76.71 76.18 75.88 75.67 75.50 75.42 75.53 75.65 75.55 75.60 75.72 75.61 75.48 75.07 74.69 74.13 73.52 73.16 73.02 73.33 73.61 73.32 72.92 72.92
54.49 51.69 49.58 51.70 51.71 53.26 56.37 55.39 56.97 56.71 57.79 61.68 65.63 63.46 65.68 73.76 76.83 76.75 76.90 75.77 75.54 76.07 76.21 75.97 75.24 74.93 75.27 75.60 75.83 75.58 75.33 75.25 75.30 75.34 75.49 75.52 75.55 75.26 74.84 74.80 74.14 73.25 72.89 72.82 72.78 72.74 72.69 72.54 72.30
55.59 50.38 49.66 50.20 50.91 52.20 55.03 54.94 56.18 56.53 56.02 59.99 64.88 65.30 69.80 75.64 76.67 75.69 75.22 74.64 74.22 74.54 75.83 75.75 74.73 74.84 74.81 74.97 75.26 75.32 75.09 75.46 75.33 75.42 75.55 74.81 74.15 75.15 75.36 74.45 74.17 73.59 73.05 72.62 72.37 72.27 72.11 71.51 71.55
53.28 51.43 52.21 54.25 52.64 50.18 52.49 52.29 54.38 54.93 54.99 59.41 62.22 68.90 71.59 74.59 74.74 73.89 73.30 72.73 72.94 73.48 74.64 75.51 75.37 75.02 74.92 74.31 75.80 74.85 74.49 74.21 73.91 73.83 74.90 73.72 73.41 74.04 73.07 74.25 73.74 73.69 73.69 73.29 73.17 73.10 72.54 71.29 67.62
51.55 51.41 55.00 54.79 52.52 54.69 53.64 53.02 53.38 53.83 54.87 57.35 59.90 65.78 71.31 73.10 73.51 72.89 72.43 72.54 72.61 73.51 74.41 75.42 76.20 76.21 75.35 74.73 75.24 74.58 74.90 74.86 75.10 75.51 76.01 75.34 74.87 75.00 73.86 73.61 73.91 73.71 73.32 72.80 73.02 72.50 71.40 69.94 69.39
51.39 53.79 53.50 50.65 53.73 54.07 52.19 54.17 52.35 52.58 58.30 57.29 56.81 60.23 71.84 71.89 72.03 71.80 71.94 72.37 72.56 73.13 74.03 75.27 76.80 76.54 76.20 75.14 74.80 75.31 75.08 75.51 75.68 76.15 77.21 76.38 75.73 75.64 75.65 74.70 74.83 75.14 74.50 73.98 73.39 72.06 72.18 71.57 71.52
51.48 50.89 48.70 51.21 52.25 54.10 55.19 53.46 52.91 52.49 55.32 57.11 57.04 56.75 66.37 71.94 71.98 72.71 73.42 73.93 73.93 73.44 74.29 75.33 76.36 77.15 76.85 75.97 75.21 75.64 75.54 75.57 76.28 76.47 76.99 76.38 75.87 75.58 75.85 75.68 75.75 75.72 75.66 75.35 75.07 74.67 74.29 73.80 73.25
52.12 51.73 51.68 51.14 52.35 51.80 52.61 50.85 54.03 54.19 55.77 55.85 56.22 56.44 57.80 66.98 70.86 72.99 73.77 73.96 74.59 75.01 75.04 75.50 76.09 77.27 77.43 76.82 76.82 76.06 76.37 76.36 76.53 76.57 76.91 77.36 76.61 76.35 75.82 75.77 75.70 75.72 75.76 75.76 75.39 75.19 75.03 74.98 74.97
54.37 52.12 53.77 51.26 50.80 51.93 53.68 50.56 49.76 54.10 54.75 54.79 55.62 57.05 56.70 57.85 61.73 65.13 68.96 71.35 72.94 74.68 76.14 75.98 76.42 77.22 77.48 77.31 77.34 77.34 76.90 76.74 76.51 76.61 77.53 77.35 76.95 76.97 76.90 75.55 75.32 75.51 76.10 76.20 75.75 75.41 75.20 74.31 74.13
51.44 50.44 48.02 51.49 51.78 52.12 50.61 46.14 53.75 55.30 53.54 52.79 54.92 55.99 56.30 57.95 58.50 59.95 61.17 63.96 68.82 71.12 73.64 76.23 75.92 76.40 77.24 77.27 77.30 77.16 76.95 76.91 76.66 76.55 76.86 76.64 76.64 76.62 76.65 75.36 75.59 76.24 76.37 75.89 75.16 74.47 74.00 73.89 73.79
47.44 44.96 44.85 45.35 48.97 48.53 47.95 47.15 52.72 55.31 53.29 53.19 54.45 55.81 56.07 57.09 58.77 60.71 61.07 62.23 64.99 68.66 71.94 74.20 76.50 76.28 76.79 77.50 77.21 77.46 77.66 76.79 76.77 76.69 76.18 76.44 76.08 76.11 76.13 75.68 76.17 77.02 76.07 75.56 75.27 74.80 74.73 73.67 73.66
42.05 42.65 44.69 41.56 46.68 46.04 45.21 45.45 49.27 53.59 52.55 52.75 53.15 55.88 56.98 56.58 57.55 59.82 62.00 62.61 63.53 65.75 68.21 70.75 73.93 76.41 77.24 77.24 77.31 76.71 76.46 76.60 76.90 76.20 75.90 76.51 76.47 76.48 76.49 76.10 76.15 76.18 75.15 74.83 74.63 74.84 74.51 73.88 73.32
45.25 43.54 43.32 45.30 47.27 46.73 45.30 44.70 47.38 51.12 52.56 52.75 53.56 54.88 55.92 56.74 58.71 60.31 61.46 63.02 63.40 65.41 67.35 70.12 71.79 74.73 75.68 74.80 74.30 74.33 74.11 75.37 75.70 75.77 75.75 76.11 76.34 76.35 76.60 75.53 75.96 76.31 75.08 75.01 75.17 74.59 73.69 72.66 73.26
45.41 44.02 43.70 46.51 47.60 47.34 46.93 46.36 48.25 50.67 52.28 53.17 53.70 54.58 55.61 56.81 58.13 59.76 60.62 62.16 63.11 65.13 66.72 69.14 71.42 74.41 75.04 74.20 74.52 74.80 75.16 75.47 75.58 75.19 76.44 77.20 76.78 76.73 76.16 75.70 74.42 74.26 71.79 73.30 73.39 73.20 71.93 71.28 72.53
45.67 44.37 44.48 43.93 47.42 47.90 46.81 45.59 47.42 50.40 51.72 52.76 53.88 55.36 55.95 56.55 57.22 58.95 59.72 61.96 64.30 65.09 66.57 68.75 71.33 73.99 75.20 75.33 75.39 74.84 75.52 75.03 74.18 74.55 74.13 73.61 72.83 72.54 71.89 71.33 70.04 70.53 70.18 66.99 70.27 70.59 70.46 67.36 68.67
42.96 47.16 46.39 45.33 44.67 41.40 47.48 39.36 45.61 49.05 50.04 51.95 53.53 54.40 55.18 57.21 59.01 59.82 60.35 61.62 63.67 65.23 66.76 69.12 72.07 74.27 74.90 75.79 74.17 74.31 72.56 71.68 71.95 72.47 71.33 69.65 69.34 69.09 69.48 69.24 69.14 69.58 68.09 69.25 68.43 68.92 69.22 68.45 66.31
45.35 48.57 46.87 46.03 44.94 44.54 44.41 42.01 45.48 48.99 47.25 50.17 52.47 54.14 56.71 58.35 59.42 60.27 61.63 62.61 63.24 63.76 65.53 68.89 72.22 73.91 74.70 74.59 74.16 72.87 73.89 72.30 70.78 69.68 69.25 69.39 69.42 69.02 67.62 68.59 68.65 68.41 67.11 67.91 68.72 68.43 68.83 67.57 66.56
48.99 46.87 46.56 46.62 45.41 39.80 43.72 42.76 43.26 46.23 48.01 50.05 52.56 54.53 56.74 58.01 59.18 60.24 61.61 62.51 63.42 64.13 63.96 67.13 70.43 72.17 73.55 73.10 73.52 73.22 73.00 70.85 67.98 67.28 65.77 65.73 66.51 67.62 68.49 68.01 68.36 68.10 67.33 67.04 66.54 67.53 67.76 67.79 67.22
47.71 45.41 39.55 37.79 38.33 37.95 45.02 43.06 45.34 49.55 50.15 51.49 52.90 54.61 56.43 57.88 58.64 59.67 60.94 61.95 63.10 63.31 63.14 66.12 68.82 70.03 71.79 72.33 72.15 71.66 70.48 68.97 67.72 66.89 65.23 67.03 64.82 65.55 67.82 68.43 67.80 66.40 67.34 66.17 66.27 66.41 66.05 65.68 65.33
45.69 45.64 40.35 34.19 36.54 39.51 44.31 39.76 45.03 50.77 53.15 54.34 55.10 55.98 56.87 57.34 58.78 60.15 61.64 62.57 62.63 62.87 62.96 64.17 67.33 68.32 69.62 70.02 69.97 69.23 68.97 66.37 65.80 67.85 64.47 64.39 64.02 65.20 67.88 68.00 67.28 66.78 65.99 65.80 66.08 64.17 63.78 64.90 64.00
45.47 43.59 47.73 42.32 43.39 40.80 42.69 45.20 49.23 52.61 52.38 53.23 54.35 55.53 55.93 57.18 58.07 58.96 61.78 62.47 63.70 65.04 65.48 66.03 67.21 66.78 66.33 66.06 66.72 67.06 67.39 66.27 65.50 66.03 67.82 65.06 66.96 64.45 66.34 67.45 67.10 66.66 65.96 65.75 65.91 63.11 63.30 64.07 64.26
48.03 48.88 41.99 43.33 36.02 34.72 40.14 41.34 44.68 48.54 50.59 53.01 53.52 54.31 55.09 56.17 57.15 58.21 58.98 61.57 63.25 63.58 64.06 64.57 64.46 64.64 64.75 64.50 66.15 65.69 65.60 65.06 65.41 66.08 66.17 66.90 66.96 66.90 66.47 66.33 66.82 66.56 66.11 65.46 66.21 64.96 64.44 63.54 62.84
45.60 45.30 45.63 45.95 43.76 37.77 36.92 42.03 50.19 50.53 52.42 52.56 53.10 53.73 54.26 55.07 55.84 56.85 58.36 59.20 59.83 61.10 61.84 62.12 61.78 61.12 62.01 62.66 63.48 63.40 63.28 63.45 63.86 63.79 64.29 65.19 66.14 66.42 65.97 65.85 65.86 65.66 65.45 65.62 65.48 64.93 63.49 62.37 63.79
48.95 46.16 46.81 41.69 40.37 43.07 42.47 43.04 52.71 53.15 53.61 53.80 52.91 53.43 54.34 55.23 55.86 56.39 57.55 58.82 59.44 59.47 59.49 59.75 60.31 59.94 59.96 59.97 60.39 60.69 61.08 61.41 62.11 62.66 63.23 63.95 63.89 64.60 64.24 64.12 64.15 64.42 64.68 65.13 64.37 63.42 62.96 61.76 62.19
MSLP
1011.66 1010.69 1010.53 1009.83 1008.05 1005.10 1002.66 1001.83 1002.14 1001.59 1001.66 1002.15 1002.29 1002.03 1001.34 1001.42 1001.73 1003.21 1005.34 1005.87 1006.46 1007.51 1008.88 1010.03 1010.84 1011.26 1011.56 1011.78 1012.01 1012.26 1012.52 1012.86 1013.33 1013.70 1014.08 1014.37 1014.54 1014.79 1015.09 1015.31 1015.63 1015.89 1016.03 1016.14 1016.24 1016.36 1016.46 1016.55 1016.62
1010.95 1010.33 1009.81 1008.02 1006.17 1003.16 1001.81 1001.65 1001.79 1001.79 1002.15 1002.31 1002.17 1002.15 1001.87 1001.80 1003.19 1004.51 1005.44 1006.44 1006.89 1007.89 1008.92 1009.65 1010.89 1011.42 1011.80 1012.23 1012.42 1012.60 1012.88 1013.24 1013.64 1013.91 1014.25 1014.52 1014.77 1015.10 1015.35 1015.58 1015.90 1016.05 1016.21 1016.35 1016.43 1016.50 1016.59 1016.66 1016.69
1011.01 1010.11 1008.54 1006.71 1004.74 1002.22 1000.96 1001.70 1001.64 1002.00 1002.06 1002.20 1002.00 1002.29 1002.18 1002.73 1004.01 1004.55 1005.07 1006.47 1007.15 1008.11 1008.85 1009.79 1010.91 1011.43 1011.84 1012.07 1012.43 1012.78 1013.13 1013.46 1013.80 1014.09 1014.43 1014.68 1014.89 1015.26 1015.53 1015.75 1016.00 1016.19 1016.34 1016.42 1016.50 1016.57 1016.65 1016.75 1016.80
1009.85 1008.99 1008.22 1006.34 1003.54 1002.57 1001.47 1001.72 1002.31 1002.04 1001.99 1002.23 1002.13 1001.86 1002.97 1003.88 1004.10 1004.70 1005.91 1006.59 1007.35 1008.04 1008.78 1010.53 1011.18 1011.61 1012.05 1012.41 1012.66 1013.04 1013.34 1013.64 1013.99 1014.24 1014.51 1014.76 1015.07 1015.34 1015.56 1015.86 1016.16 1016.37 1016.52 1016.60 1016.70 1016.81 1016.88 1016.93 1017.02
1009.94 1007.95 1006.50 1005.24 1003.69 1002.58 1002.67 1002.36 1002.52 1002.02 1001.96 1001.88 1001.99 1001.74 1002.86 1004.44 1004.97 1005.49 1006.09 1006.71 1007.22 1007.89 1008.66 1010.44 1011.41 1011.92 1012.24 1012.59 1012.87 1013.27 1013.59 1013.88 1014.10 1014.38 1014.68 1014.94 1015.22 1015.54 1015.78 1016.02 1016.25 1016.46 1016.64 1016.77 1016.89 1016.98 1017.05 1017.10 1017.15
1009.07 1008.02 1005.79 1004.28 1003.46 1003.05 1003.13 1002.75 1002.53 1002.21 1001.91 1001.90 1002.04 1002.04 1002.91 1004.47 1005.04 1005.57 1006.19 1006.76 1007.25 1008.00 1008.81 1010.28 1011.56 1011.93 1012.34 1012.67 1013.00 1013.31 1013.70 1013.96 1014.20 1014.50 1014.84 1015.13 1015.40 1015.65 1015.92 1016.16 1016.36 1016.58 1016.75 1016.88 1017.03 1017.19 1017.28 1017.27 1017.29
1008.17 1007.58 1005.58 1004.17 1003.31 1003.25 1003.11 1002.96 1002.64 1002.02 1001.90 1001.71 1001.80 1001.87 1002.89 1004.18 1005.03 1005.65 1006.29 1006.85 1007.40 1008.24 1008.95 1010.18 1011.13 1011.89 1012.45 1012.82 1013.13 1013.44 1013.77 1014.01 1014.26 1014.58 1014.91 1015.18 1015.44 1015.71 1015.93 1016.19 1016.43 1016.63 1016.82 1016.97 1017.12 1017.22 1017.28 1017.38 1017.47
1008.08 1007.53 1006.00 1004.73 1003.95 1003.45 1003.40 1003.46 1002.91 1002.64 1001.96 1002.66 1002.76 1001.76 1002.39 1003.88 1005.35 1005.84 1006.28 1006.80 1007.52 1008.24 1008.77 1009.76 1010.60 1011.27 1011.98 1012.62 1013.29 1013.56 1013.80 1014.03 1014.30 1014.58 1014.89 1015.16 1015.47 1015.72 1015.96 1016.19 1016.37 1016.57 1016.71 1016.85 1016.93 1017.11 1017.18 1017.15 1017.04
1008.68 1008.04 1005.71 1004.90 1004.56 1004.29 1004.14 1003.68 1003.58 1003.51 1002.88 1002.69 1002.52 1002.78 1003.38 1004.70 1005.44 1005.72 1006.08 1006.67 1007.20 1007.95 1008.65 1009.30 1009.95 1010.65 1011.25 1011.79 1012.88 1013.66 1013.98 1014.21 1014.42 1014.63 1014.91 1015.21 1014.77 1015.18 1015.47 1015.54 1016.01 1016.38 1016.55 1016.63 1016.67 1016.57 1016.72 1016.74 1016.77
1008.34 1007.55 1006.18 1005.52 1005.62 1005.48 1004.92 1004.55 1004.00 1003.66 1003.03 1002.73 1003.04 1003.57 1004.03 1004.68 1004.98 1005.38 1005.78 1006.19 1006.85 1007.62 1008.24 1008.93 1009.67 1010.29 1010.74 1011.10 1012.01 1012.85 1013.22 1013.60 1013.88 1014.09 1014.52 1014.38 1014.26 1014.48 1014.62 1015.12 1016.00 1016.26 1016.32 1016.40 1016.42 1016.60 1016.58 1016.62 1015.41
1008.93 1007.29 1007.07 1007.33 1007.75 1007.15 1005.72 1004.91 1004.47 1004.03 1002.94 1003.02 1003.00 1003.30 1003.98 1004.35 1004.64 1004.83 1005.07 1005.48 1006.26 1007.15 1007.93 1008.65 1009.78 1010.32 1010.54 1010.77 1011.35 1011.91 1012.22 1012.68 1013.17 1013.47 1013.87 1013.97 1013.94 1014.33 1014.70 1014.53 1015.13 1015.39 1015.91 1015.37 1015.74 1015.70 1015.60 1015.02 1014.68
1009.36 1008.30 1008.15 1008.95 1008.86 1007.53 1006.37 1005.63 1004.96 1004.40 1003.35 1003.68 1003.79 1004.18 1004.04 1004.14 1004.13 1004.24 1004.63 1005.16 1005.89 1006.78 1007.73 1008.64 1009.56 1010.35 1010.64 1010.41 1011.01 1011.20 1011.51 1011.95 1012.39 1012.91 1013.55 1013.56 1013.79 1013.83 1013.79 1013.69 1013.81 1014.37 1014.25 1014.47 1014.66 1014.31 1014.55 1014.70 1014.84
1008.62 1008.95 1008.99 1009.71 1009.85 1009.24 1007.94 1006.56 1005.68 1004.79 1004.36 1003.99 1003.81 1004.07 1004.05 1003.94 1004.07 1004.40 1004.78 1005.13 1005.84 1006.55 1007.33 1008.17 1009.04 1009.88 1010.43 1010.69 1010.58 1010.93 1011.28 1011.62 1011.91 1012.42 1012.98 1013.08 1013.19 1013.42 1013.57 1013.63 1013.68 1013.64 1013.70 1013.89 1014.09 1014.08 1014.23 1014.28 1014.36
1007.36 1008.15 1009.55 1009.88 1010.07 1010.65 1009.10 1006.80 1006.01 1004.53 1004.28 1003.99 1003.88 1003.78 1003.83 1003.63 1003.77 1004.20 1004.80 1005.13 1005.73 1006.39 1006.98 1007.77 1008.56 1009.42 1010.07 1010.41 1010.55 1010.76 1011.04 1011.05 1011.62 1011.85 1012.21 1012.94 1012.92 1013.01 1013.04 1013.43 1013.45 1013.47 1013.50 1013.42 1013.45 1013.58 1013.73 1013.76 1013.58
1007.23 1008.19 1009.06 1009.79 1010.15 1010.69 1010.62 1007.53 1005.50 1004.70 1004.43 1003.85 1003.51 1003.47 1003.78 1003.86 1003.80 1003.98 1004.37 1004.94 1005.35 1005.84 1006.52 1007.21 1008.13 1009.02 1009.67 1010.02 1010.32 1010.54 1010.55 1010.96 1011.09 1011.34 1012.00 1012.57 1013.07 1012.94 1013.08 1012.86 1012.94 1012.87 1013.07 1013.44 1013.47 1013.54 1013.60 1013.61 1013.40
1006.35 1007.02 1007.16 1008.55 1009.96 1010.86 1011.36 1007.83 1005.66 1004.19 1004.01 1003.57 1003.18 1003.05 1003.41 1003.57 1003.78 1003.99 1004.01 1004.65 1005.12 1005.45 1006.02 1006.85 1007.37 1008.12 1009.02 1009.35 1009.80 1010.04 1010.23 1010.63 1010.75 1011.07 1011.58 1012.36 1012.73 1012.91 1012.94 1012.60 1012.63 1012.51 1012.81 1012.99 1013.15 1013.11 1012.99 1012.82 1012.61
1005.27 1004.61 1005.79 1006.27 1007.70 1009.61 1010.70 1008.15 1006.68 1005.05 1003.83 1003.23 1002.80 1002.71 1002.89 1003.16 1003.60 1004.02 1004.31 1004.54 1005.04 1005.69 1006.06 1006.55 1007.09 1007.54 1008.25 1009.13 1009.55 1009.87 1010.14 1010.51 1010.35 1010.76 1011.32 1011.90 1012.25 1012.48 1012.58 1012.29 1012.30 1012.79 1012.65 1012.81 1012.88 1012.85 1012.75 1012.41 1012.35
1003.32 1003.98 1003.92 1005.44 1005.88 1007.25 1007.74 1006.36 1006.24 1004.66 1003.62 1002.93 1002.63 1002.62 1002.43 1002.58 1002.87 1003.37 1003.94 1004.41 1004.87 1005.46 1006.15 1006.65 1006.82 1007.32 1007.91 1008.65 1009.30 1009.37 1009.70 1010.08 1010.06 1010.43 1010.76 1011.21 1011.60 1011.97 1012.20 1012.03 1012.48 1012.64 1012.55 1012.49 1012.66 1012.84 1012.55 1012.27 1012.05
1002.89 1003.54 1003.34 1004.16 1004.85 1005.61 1005.39 1005.62 1004.85 1004.25 1003.52 1002.50 1002.10 1002.03 1002.05 1002.41 1002.52 1002.75 1003.39 1004.25 1004.80 1005.31 1005.91 1006.23 1006.64 1007.09 1007.72 1008.10 1008.43 1008.72 1008.88 1009.31 1009.68 1010.08 1010.52 1010.90 1011.18 1011.62 1011.86 1011.87 1012.06 1012.46 1012.40 1012.48 1012.55 1012.64 1012.43 1012.23 1011.80
1002.63 1002.92 1003.19 1003.49 1004.70 1005.11 1004.34 1003.67 1003.78 1003.30 1003.31 1002.47 1001.79 1001.75 1002.12 1002.48 1002.52 1003.12 1003.66 1004.03 1004.38 1004.90 1005.52 1005.92 1006.31 1006.87 1007.53 1007.73 1008.01 1008.15 1008.45 1008.74 1009.20 1009.69 1010.18 1010.47 1010.71 1011.14 1011.50 1011.87 1011.88 1012.26 1012.01 1012.51 1012.55 1012.59 1012.43 1011.65 1011.50
1002.89 1002.50 1002.52 1003.11 1003.93 1003.99 1003.37 1003.20 1002.87 1002.85 1002.64 1002.16 1002.39 1002.25 1002.48 1002.45 1002.27 1002.87 1003.32 1003.61 1003.95 1004.44 1004.75 1005.13 1005.71 1006.39 1007.15 1007.37 1007.88 1008.30 1008.43 1008.87 1009.16 1009.49 1010.10 1010.49 1010.89 1011.36 1011.73 1011.90 1012.00 1012.19 1012.42 1011.82 1012.15 1012.25 1012.26 1011.86 1011.42
1002.41 1002.80 1002.76 1003.17 1003.23 1002.26 1002.96 1002.01 1001.49 1001.94 1001.62 1001.72 1001.71 1002.00 1002.35 1002.50 1002.77 1003.06 1003.46 1003.71 1003.95 1004.09 1004.47 1005.00 1005.50 1006.13 1006.88 1007.30 1007.62 1007.74 1007.64 1007.91 1008.24 1008.93 1009.59 1010.42 1010.82 1011.20 1011.56 1011.63 1011.79 1012.12 1011.95 1012.03 1012.15 1012.19 1012.50 1012.38 1011.81
1001.92 1002.71 1003.14 1003.14 1002.91 1002.34 1002.26 1001.95 1000.14 1001.25 1001.37 1001.26 1001.57 1002.02 1002.43 1002.68 1003.13 1003.28 1003.44 1003.87 1003.93 1004.08 1004.35 1004.82 1005.34 1005.90 1006.40 1007.22 1007.30 1007.68 1007.21 1007.53 1008.24 1008.85 1009.93 1010.17 1010.85 1010.97 1011.10 1011.45 1011.71 1011.94 1012.06 1011.92 1012.28 1012.28 1012.11 1011.92 1011.50
1002.28 1002.88 1002.73 1002.80 1002.32 1001.73 1001.57 1001.53 999.90 1000.55 1001.28 1001.33 1002.09 1002.35 1002.92 1003.24 1003.37 1003.60 1003.84 1004.10 1004.20 1004.44 1004.77 1005.11 1005.61 1006.06 1006.54 1007.13 1007.33 1007.35 1007.47 1007.75 1008.21 1008.80 1009.58 1009.87 1010.22 1010.75 1011.03 1011.17 1011.53 1011.71 1011.79 1012.02 1011.95 1012.04 1012.06 1011.97 1011.68
1001.90 1001.91 1001.45 1001.70 1001.18 1000.57 1000.38 1000.82 1000.40 1000.69 1001.52 1001.56 1002.29 1003.06 1003.54 1003.57 1003.71 1003.92 1004.03 1004.17 1004.51 1004.67 1004.98 1005.27 1005.67 1006.02 1006.57 1006.99 1007.20 1007.37 1007.96 1008.27 1008.56 1008.99 1009.05 1009.15 1009.51 1009.96 1010.44 1010.93 1011.22 1011.24 1011.60 1011.70 1011.70 1011.78 1011.83 1011.68 1011.51
1001.02 1000.93 999.66 999.40 999.34 999.62 1001.26 1000.76 1000.72 1001.74 1002.73 1003.19 1003.34 1003.76 1003.97 1004.02 1003.99 1004.27 1004.59 1004.81 1004.77 1005.01 1005.26 1005.45 1005.88 1006.33 1006.74 1006.92 1007.15 1007.41 1007.92 1007.99 1008.22 1008.96 1008.52 1008.98 1009.09 1009.47 1009.94 1010.54 1010.81 1010.96 1011.12 1011.31 1011.49 1011.48 1011.41 1011.20 1011.23
1000.50 1000.14 1000.22 1000.03 1000.48 1000.09 1000.10 1001.24 1002.21 1002.93 1003.32 1003.61 1003.97 1004.43 1004.70 1004.72 1004.77 1004.65 1004.56 1004.94 1005.23 1005.43 1005.78 1005.84 1006.12 1006.58 1006.88 1007.12 1007.26 1007.75 1008.13 1008.30 1008.32 1008.79 1009.22 1009.03 1009.12 1009.11 1009.74 1010.21 1010.42 1010.56 1010.65 1010.87 1011.07 1011.06 1010.87 1010.92 1010.82
1000.14 1000.77 1000.90 1000.87 1000.14 1000.01 999.84 1000.56 1000.61 1002.43 1003.11 1003.83 1004.33 1004.62 1004.92 1004.98 1004.96 1005.03 1005.14 1005.41 1005.56 1006.10 1006.61 1006.85 1006.89 1007.16 1007.62 1007.72 1007.95 1008.16 1008.65 1008.95 1009.11 1009.27 1009.29 1009.29 1009.27 1009.42 1009.47 1009.70 1009.98 1010.11 1010.15 1010.27 1010.45 1010.19 1010.17 1010.34 1010.09
1000.83 1000.02 1000.48 1000.30 1000.39 1000.47 1000.42 1000.23 1000.74 1001.83 1003.24 1003.88 1004.57 1004.90 1005.14 1005.24 1005.24 1005.30 1005.42 1005.84 1006.04 1006.20 1006.48 1007.12 1007.30 1007.47 1007.76 1008.06 1008.30 1008.62 1008.77 1008.84 1008.97 1009.12 1009.13 1009.20 1009.38 1009.43 1009.41 1009.36 1009.30 1009.36 1009.52 1009.69 1009.77 1009.68 1009.41 1009.22 1009.43
999.96 1000.06 1000.35 1000.26 1000.76 1001.22 1000.93 1000.93 1002.02 1002.80 1003.69 1004.36 1004.80 1005.20 1005.58 1005.72 1005.75 1005.75 1005.94 1006.39 1006.67 1006.93 1007.32 1007.75 1007.94 1008.04 1008.42 1008.65 1008.90 1009.17 1009.21 1009.16 1009.26 1009.25 1009.26 1009.31 1009.15 1009.13 1009.02 1008.88 1008.71 1008.62 1008.58 1008.72 1008.84 1008.85 1008.67 1008.42 1008.27
Wind_Speed
14 6 4 6 9 8 13 5 2 4 2 5 8 7 5 8 10 6 9 9 17 17 17 17 11 11 12 12 13 14 15 15 15 15 15 14 13 13 12 11 10 9 9 9 9 10 10 10 10
10 4 6 7 10 12 12 6 12 3 5 6 2 5 5 6 6 9 14 13 19 18 17 18 14 12 13 12 12 14 15 15 15 15 14 14 13 12 12 11 9 9 8 9 9 10 9 9 9
12 6 7 7 13 15 11 11 5 2 4 3 3 3 3 5 6 13 15 18 19 17 17 17 16 14 13 15 15 15 15 15 15 15 14 14 13 12 11 10 9 9 8 9 9 9 9 8 7
7 7 6 12 15 17 11 7 3 5 3 1 3 4 5 4 9 6 17 19 18 17 16 18 15 14 14 14 14 14 15 15 15 14 14 13 13 12 11 10 9 8 7 8 8 7 6 6 5
6 4 11 16 20 10 11 5 5 7 3 3 7 7 6 7 8 15 16 17 17 17 15 18 14 14 13 13 14 14 14 14 14 14 13 13 12 11 10 9 8 7 7 7 7 6 5 5 4
6 5 11 17 20 13 10 9 9 10 4 1 7 4 9 10 10 14 15 17 16 16 15 17 16 15 14 14 13 13 13 13 14 13 12 12 11 11 10 9 7 6 5 5 5 4 3 3 3
10 7 16 17 19 13 12 8 10 10 7 4 4 9 8 11 10 13 13 15 15 15 15 16 16 15 14 14 14 14 14 14 13 13 12 12 11 10 10 8 7 6 5 4 3 3 3 2 4
7 7 18 11 12 14 7 5 3 9 6 3 5 8 11 12 12 13 13 14 15 15 15 15 15 16 15 14 12 13 14 14 14 13 13 11 10 9 9 7 7 6 6 6 6 4 5 5 6
4 11 14 17 13 7 6 9 5 3 5 2 2 4 9 15 15 13 12 14 14 13 14 15 16 15 15 14 13 11 13 12 12 12 11 11 10 11 12 7 11 8 8 8 8 10 9 9 9
14 16 21 7 4 6 2 5 2 8 6 7 6 4 9 16 17 15 15 15 16 15 15 14 14 14 14 11 14 13 13 11 11 12 12 10 8 7 6 6 8 8 9 9 9 8 7 9 9
16 20 17 10 8 15 15 10 6 10 10 1 1 4 9 13 15 15 15 15 17 16 12 14 12 12 14 11 9 8 8 8 9 12 11 10 7 7 7 6 7 8 12 8 11 11 9 10 7
18 19 15 7 17 16 12 10 10 10 12 5 4 3 9 15 16 15 13 13 14 15 15 14 15 13 13 9 9 10 9 9 8 10 11 8 6 7 7 6 7 6 6 7 7 6 7 7 8
24 19 6 10 15 19 23 19 19 18 13 11 6 5 9 14 14 12 11 11 11 13 15 16 16 15 13 12 10 10 9 9 9 9 12 10 9 8 7 6 6 6 7 7 7 7 7 8 9
22 20 15 3 16 16 25 23 19 19 14 17 11 9 10 11 13 13 13 12 13 13 15 16 16 16 15 14 13 10 9 9 9 9 10 13 9 7 8 8 8 8 7 7 7 7 7 8 8
19 21 13 13 12 17 18 29 23 20 18 14 16 11 9 10 10 11 13 13 14 13 13 15 16 16 16 16 14 11 9 10 9 9 10 10 10 9 9 8 8 7 7 8 8 8 9 9 9
26 18 20 19 19 14 5 26 21 18 16 19 18 14 11 13 12 12 10 10 10 10 12 12 12 15 17 15 12 10 9 9 9 8 8 11 11 11 10 8 8 7 6 6 7 8 8 8 9
19 20 24 16 28 18 15 20 26 24 15 17 17 16 13 13 14 12 12 12 11 10 10 11 13 15 16 14 11 11 11 9 9 8 8 10 11 11 9 7 6 6 6 6 7 8 8 8 8
21 25 19 18 15 29 27 26 15 20 18 17 15 18 16 14 14 14 16 13 12 12 11 11 11 14 13 10 11 10 9 10 9 9 9 10 9 10 9 7 6 6 6 7 8 9 8 8 9
16 15 14 17 13 21 24 20 19 20 14 15 14 14 12 14 15 14 11 10 12 11 13 14 13 12 11 11 10 11 11 10 10 9 9 9 8 10 8 7 7 8 8 8 8 8 10 10 10
12 17 19 10 15 18 18 19 20 17 16 17 15 13 10 9 11 10 9 11 12 13 14 13 13 13 12 9 9 7 9 8 8 9 9 10 9 8 7 7 5 4 5 6 7 7 8 10 8
18 17 14 12 13 12 8 15 15 16 13 9 9 7 7 7 8 8 6 7 8 12 13 14 13 12 12 10 8 7 8 7 8 8 8 7 7 7 6 6 4 4 6 6 6 8 9 9 9
20 15 12 12 11 12 17 13 22 20 15 14 13 8 6 3 3 4 5 6 9 9 10 12 11 12 12 13 11 12 11 11 9 9 8 8 8 8 7 5 5 5 5 5 6 6 7 7 9
14 14 17 15 14 13 12 10 6 9 13 15 11 8 6 3 2 1 1 3 5 5 6 7 10 11 11 12 12 11 11 9 8 8 10 7 7 7 7 7 6 6 6 4 6 7 8 8 9
9 11 10 10 11 14 17 12 13 11 13 12 9 5 3 3 2 4 5 5 4 3 5 6 8 10 11 13 13 14 12 11 10 9 9 8 8 8 8 8 7 6 6 6 6 7 8 8 9
18 16 10 11 11 11 5 12 15 9 5 3 4 4 4 5 6 7 7 7 5 5 4 6 8 10 11 13 13 12 11 11 11 11 9 8 7 8 9 10 9 8 8 7 7 7 7 7 8
20 18 9 11 11 10 12 9 8 6 5 4 5 6 6 7 8 8 8 8 7 5 2 4 7 9 12 12 12 10 12 9 8 10 6 7 7 7 8 11 10 11 9 9 8 8 8 7 7
23 20 18 7 2 5 10 7 8 10 10 7 8 9 9 8 7 8 9 10 10 9 7 5 7 9 10 9 8 7 6 3 4 3 5 6 6 6 9 11 12 12 12 11 10 10 9 9 9
11 17 11 9 11 11 9 6 3 15 12 11 9 8 8 7 8 8 9 9 8 7 7 7 5 6 6 4 2 3 3 4 4 5 7 8 8 8 10 11 12 13 13 13 13 11 11 11 10
12 12 11 8 11 8 9 4 5 11 10 11 10 7 6 6 7 7 8 8 8 6 7 6 5 4 4 3 2 3 4 5 6 7 8 10 10 12 12 13 14 15 15 15 13 14 15 15 14
11 18 16 9 9 7 7 3 7 11 10 9 8 6 6 6 7 7 8 8 8 8 8 8 7 7 7 6 5 5 5 5 5 6 8 10 11 13 14 14 15 16 17 16 17 18 17 19 18
Wind_Direction
269 262 251 241 242 234 241 201 322 153 125 358 308 268 319 359 349 37 127 141 137 142 145 155 143 137 133 132 133 132 132 131 137 140 141 139 132 128 127 126 130 126 127 133 131 129 129 130 132
296 258 219 264 250 214 214 185 209 102 6 333 256 220 214 78 56 109 141 150 153 142 152 154 147 142 133 129 128 128 128 131 136 138 138 134 128 127 128 128 136 138 142 145 143 140 139 141 145
258 236 256 230 233 245 223 171 154 276 351 345 225 284 31 61 90 143 114 151 149 151 156 145 152 146 143 142 139 134 134 136 139 139 138 135 132 132 132 137 146 153 155 155 155 154 152 155 157
240 191 228 246 230 232 252 140 174 252 167 106 211 178 112 51 128 124 136 151 149 155 154 136 148 148 147 146 141 139 139 141 143 141 141 138 140 140 141 146 152 159 163 162 162 160 161 164 171
246 244 233 227 238 230 244 184 236 239 258 293 193 126 102 102 104 133 141 155 159 154 153 152 149 151 150 151 145 146 146 148 145 145 146 145 144 144 145 152 157 165 166 166 169 171 177 183 190
205 267 223 226 222 213 227 227 225 229 236 253 216 174 117 118 140 144 148 161 160 152 148 148 154 157 158 157 156 153 154 152 150 150 151 149 149 152 156 159 163 167 166 170 175 180 199 213 230
242 217 234 234 226 208 219 228 226 220 212 210 344 197 99 157 120 145 151 159 153 155 158 156 167 163 160 163 164 163 162 159 155 154 154 154 156 157 161 162 164 167 165 167 178 184 207 246 286
202 253 234 234 226 224 170 216 243 230 187 343 224 221 170 137 147 146 152 158 162 165 163 164 171 172 175 172 169 170 169 165 162 160 159 159 157 162 169 161 178 178 173 174 172 194 213 222 223
215 239 229 212 216 221 174 219 215 320 252 208 205 328 66 138 150 155 155 163 168 171 168 174 175 173 182 175 171 174 173 171 166 164 163 162 192 181 171 178 145 180 191 197 200 198 211 215 228
221 217 230 215 286 273 210 267 308 268 215 191 203 166 141 158 162 163 167 169 175 176 176 178 184 176 185 180 168 190 180 187 189 187 178 203 201 195 217 153 169 196 203 212 212 232 226 227 244
239 237 224 269 309 291 283 270 259 258 236 73 246 179 177 172 175 176 178 174 177 176 181 183 186 183 194 192 180 190 187 191 191 192 185 204 187 189 203 196 193 209 200 219 197 205 221 238 258
249 254 246 245 284 276 260 281 266 275 270 123 102 339 191 190 185 184 184 172 173 177 185 185 182 190 202 196 193 195 200 195 194 196 192 199 208 197 218 210 207 207 203 220 229 233 240 248 245
206 227 220 259 255 278 294 279 283 277 275 263 253 258 224 196 187 188 190 183 181 186 186 191 190 193 196 210 197 214 208 198 200 192 194 208 213 210 212 226 238 230 224 218 236 238 241 234 239
205 218 197 235 279 284 282 280 261 263 264 260 246 241 217 219 203 192 198 197 192 194 195 196 196 195 199 205 214 205 208 202 209 200 202 210 218 210 220 218 226 235 238 243 246 248 251 247 254
226 204 200 209 229 251 280 281 263 256 269 254 234 219 225 218 210 204 195 204 204 206 205 198 198 197 205 206 208 212 204 216 204 208 202 202 212 220 231 221 225 228 233 247 248 250 246 252 253
215 213 216 209 205 242 195 270 268 262 244 242 241 223 217 221 215 217 214 205 207 221 195 205 202 200 207 212 209 214 213 209 212 206 194 203 205 217 218 225 225 225 231 242 245 243 247 250 251
205 216 218 207 190 200 182 250 248 276 254 239 234 233 218 215 216 231 230 224 213 210 215 211 208 213 208 210 214 212 211 217 208 203 201 198 206 206 228 241 231 228 240 241 253 252 253 266 266
203 217 212 206 210 196 209 238 236 253 246 241 240 230 226 227 231 221 224 224 216 211 205 210 213 214 209 208 209 209 205 211 213 201 210 193 206 211 222 233 240 229 238 245 242 257 265 265 274
208 212 216 205 208 208 214 220 234 235 236 237 221 235 237 241 247 248 223 227 217 212 204 207 199 200 197 200 201 207 208 204 202 204 202 198 203 208 215 238 222 230 246 251 262 253 250 262 258
231 205 218 171 174 215 211 230 208 231 229 238 228 219 232 261 240 220 220 219 218 209 209 206 211 195 195 194 202 201 204 192 195 192 186 198 200 209 215 235 217 219 251 240 260 260 273 265 280
217 224 205 208 190 219 229 222 230 225 230 207 234 242 257 270 231 203 213 222 223 219 212 209 203 195 196 200 182 175 165 173 185 172 178 175 176 183 205 194 246 217 261 258 246 254 250 277 272
209 219 237 216 228 222 194 243 205 225 210 209 216 202 205 165 157 167 209 216 224 237 208 211 204 198 193 191 182 185 181 179 185 181 171 160 174 179 184 207 205 228 279 299 266 255 281 261 267
221 173 216 224 230 250 198 243 210 184 219 216 214 200 164 129 64 31 9 326 302 284 246 212 204 201 198 189 207 192 200 180 165 171 146 177 176 194 196 196 205 222 242 246 270 274 259 279 267
170 198 205 224 227 226 231 218 222 190 218 205 152 166 97 34 350 1 357 341 340 317 256 230 210 204 197 197 198 200 191 171 168 163 171 179 182 187 203 202 212 220 235 238 249 256 260 273 291
200 185 179 199 202 237 188 196 247 114 143 122 136 90 32 27 32 15 9 352 339 328 268 212 204 197 195 196 184 183 168 172 171 170 192 184 189 195 187 207 209 209 221 240 242 237 260 263 272
195 199 236 213 211 194 144 219 129 131 128 147 104 92 67 46 46 50 51 35 34 34 46 193 174 178 178 172 175 170 168 174 185 203 196 204 210 205 196 206 214 219 224 227 233 240 242 248 248
193 212 235 273 352 285 171 118 150 151 146 142 124 109 87 69 64 45 67 63 52 62 71 124 155 155 155 155 153 159 170 227 230 217 229 229 238 238 217 219 221 224 227 228 226 237 235 239 239
200 199 194 214 226 218 207 219 150 172 157 141 132 110 85 73 63 57 55 48 62 84 95 78 70 90 79 88 110 161 193 226 247 259 263 272 277 264 268 227 235 238 236 234 229 236 230 237 237
195 206 224 255 223 222 246 206 91 132 155 135 120 106 80 53 41 48 58 63 62 55 64 63 64 86 66 29 355 301 297 289 279 271 264 260 262 260 257 251 246 242 244 243 242 246 256 238 237
222 211 207 222 201 248 287 307 95 134 141 140 124 89 61 36 32 38 47 55 54 54 55 59 51 46 42 27 27 19 3 334 303 281 277 274 266 263 262 261 258 255 251 247 244 248 249 246 244